UAL2691 KEWR-KBOS

Flight info

Callsign UAL2691
Flight time N/A
Altitude 21000
Route MERIT ROBUC3
Aircraft A319/M-SDE3FGHIRWY/LB1

Departure

Time 2026-05-07 00:53
Airport Newark Liberty International Airport (KEWR)

Arrival

Time N/A
Airport Boston Logan International Airport (KBOS)
Time Latitude Longitude Altitude Speed Heading
2026-05-07 00:27 40.69569 -74.17382 22 ft 0 kts 132°
2026-05-07 00:43 40.69572 -74.17387 22 ft 3 kts 132°
2026-05-07 00:44 40.69590 -74.17413 22 ft 4 kts 132°
2026-05-07 00:44 40.69605 -74.17434 24 ft 4 kts 141°
2026-05-07 00:44 40.69626 -74.17446 26 ft 4 kts 192°
2026-05-07 00:44 40.69647 -74.17432 22 ft 4 kts 227°
2026-05-07 00:45 40.69657 -74.17407 22 ft 4 kts 292°
2026-05-07 00:45 40.69647 -74.17394 22 ft 4 kts 27°
2026-05-07 00:45 40.69630 -74.17411 24 ft 1 kts 41°
2026-05-07 00:48 40.69645 -74.17394 22 ft 6 kts 41°
2026-05-07 00:49 40.69688 -74.17345 22 ft 11 kts 41°
2026-05-07 00:49 40.69731 -74.17246 23 ft 15 kts 54°
2026-05-07 00:49 40.69786 -74.17155 22 ft 2 kts 46°
2026-05-07 00:49 40.69819 -74.17169 22 ft 10 kts 317°
2026-05-07 00:50 40.69884 -74.17260 24 ft 17 kts 312°
2026-05-07 00:50 40.69980 -74.17374 22 ft 22 kts 350°
2026-05-07 00:50 40.70115 -74.17294 22 ft 25 kts 77°
2026-05-07 00:50 40.70104 -74.17042 22 ft 30 kts 95°
2026-05-07 00:51 40.70084 -74.16741 22 ft 29 kts 95°
2026-05-07 00:51 40.70068 -74.16511 21 ft 10 kts 95°
2026-05-07 00:51 40.70065 -74.16474 21 ft 0 kts 95°
2026-05-07 00:51 40.70064 -74.16453 20 ft 7 kts 95°
2026-05-07 00:52 40.70020 -74.16374 19 ft 17 kts 176°
2026-05-07 00:52 40.69853 -74.16473 20 ft 49 kts 206°
2026-05-07 00:52 40.69332 -74.16804 24 ft 115 kts 205°
2026-05-07 00:52 40.68451 -74.17358 149 ft 153 kts 206°
2026-05-07 00:53 40.67506 -74.17894 886 ft 148 kts 195°
2026-05-07 00:53 40.66452 -74.17713 1517 ft 158 kts 173°
2026-05-07 00:53 40.65340 -74.17484 2018 ft 166 kts 194°
2026-05-07 00:53 40.64318 -74.18209 2332 ft 178 kts 234°
2026-05-07 00:54 40.63897 -74.19808 2709 ft 201 kts 271°
2026-05-07 00:54 40.64222 -74.21717 3248 ft 228 kts 286°
2026-05-07 00:54 40.64771 -74.23757 4078 ft 241 kts 287°
2026-05-07 00:54 40.65386 -74.25821 4733 ft 249 kts 292°
2026-05-07 00:55 40.66524 -74.27562 4939 ft 259 kts 319°
2026-05-07 00:55 40.68244 -74.28404 5006 ft 274 kts 347°
2026-05-07 00:55 40.70177 -74.28134 5011 ft 287 kts 13°
2026-05-07 00:55 40.71904 -74.26761 5006 ft 298 kts 41°
2026-05-07 00:56 40.73151 -74.24549 5013 ft 302 kts 56°
2026-05-07 00:56 40.74246 -74.22177 5009 ft 303 kts 57°
2026-05-07 00:56 40.75326 -74.19790 5008 ft 302 kts 57°
2026-05-07 00:56 40.76403 -74.17412 5008 ft 302 kts 57°
2026-05-07 00:57 40.77474 -74.15025 5008 ft 302 kts 57°
2026-05-07 00:57 40.78550 -74.12623 5264 ft 307 kts 58°
2026-05-07 00:57 40.79640 -74.10186 6245 ft 311 kts 57°
2026-05-07 00:57 40.80736 -74.07716 7128 ft 318 kts 57°